Wind_Speed
64 73 79 83 86 87 88 87 86 84 82 78 75 74 73 73 74 74 74 72 70 67 65 63 62 62 61 61 60 58 56 54 52 51 51 50 49 48
46 55 64 71 78 83 87 88 88 87 86 83 80 77 75 74 73 73 74 74 73 71 69 67 66 64 64 63 62 62 60 58 57 55 55 54 52 51
37 42 48 55 64 73 80 85 87 88 88 86 86 82 79 77 75 74 73 73 73 73 72 70 69 68 67 66 65 64 62 61 60 58 57 56 55 54
36 37 39 43 49 57 66 74 80 83 86 86 87 86 84 81 79 77 76 74 73 72 72 71 71 70 69 68 67 66 65 64 62 60 59 59 59 59
37 37 38 40 42 48 54 62 68 73 77 80 83 85 84 83 81 80 79 77 76 74 73 71 71 72 72 71 69 68 68 67 65 64 62 62 62 62
39 38 38 39 40 43 47 53 58 63 67 71 75 77 79 80 80 80 81 80 78 77 76 73 72 71 71 71 71 72 72 71 69 67 66 65 65 65
40 39 38 37 36 37 40 45 49 53 57 61 64 68 71 72 74 75 77 78 79 78 77 75 74 72 71 71 71 72 72 72 72 71 69 69 68 67
40 38 36 35 33 33 34 39 44 49 53 56 60 63 66 67 69 69 70 73 75 76 76 76 76 76 75 73 72 71 72 73 74 73 73 73 73 73
41 39 37 35 33 33 35 40 44 47 53 56 58 60 63 65 65 65 66 67 69 71 73 74 75 75 75 76 76 76 77 76 76 77 76 76 76 77
42 41 39 37 37 38 39 43 45 47 51 54 56 56 58 60 62 63 63 61 63 66 70 71 73 73 74 75 76 78 79 80 80 80 79 78 78 78
45 45 43 42 41 42 42 44 46 46 48 50 51 51 52 53 55 56 56 56 56 58 61 64 67 69 71 73 74 75 77 78 78 79 80 79 79 78
47 48 47 47 47 46 45 44 44 44 45 46 48 48 47 47 48 50 50 51 51 53 55 57 59 62 64 67 69 70 72 73 74 75 75 75 76 76
48 49 50 49 50 50 48 46 44 42 42 43 45 47 47 47 47 48 49 49 50 50 51 53 54 56 58 59 60 62 64 66 67 69 70 70 71 72
48 49 50 51 51 52 51 49 47 44 43 42 43 45 47 47 48 49 49 50 50 51 52 53 53 54 54 55 56 57 58 59 62 63 64 65 65 66
47 49 49 51 51 51 52 52 50 48 46 45 44 45 46 48 50 50 50 50 50 51 52 53 54 54 55 56 55 56 56 55 56 57 58 58 59 59
46 47 48 49 50 51 51 51 51 50 49 49 48 48 48 49 50 51 51 50 50 51 52 52 53 54 55 57 57 57 56 55 55 55 54 54 55 55
41 46 47 48 48 50 50 50 50 50 51 51 51 52 52 52 52 52 52 51 50 49 49 50 51 52 53 55 56 56 55 55 54 54 54 54 54 54
33 41 45 47 48 49 49 49 48 48 49 51 53 54 55 56 56 56 55 54 52 51 49 49 50 51 52 52 53 52 52 52 52 53 53 53 53 54
24 33 41 46 48 49 49 49 48 47 47 48 50 53 55 57 58 59 58 57 56 54 52 50 50 50 50 50 50 49 49 50 51 52 53 53 53 53
17 23 32 41 46 49 50 50 50 48 47 46 46 48 51 54 56 58 59 59 58 56 54 52 50 50 49 49 48 48 48 48 49 50 51 51 51 51
13 16 22 31 40 47 50 51 51 50 48 46 45 45 46 49 50 53 55 57 57 56 54 52 50 48 47 47 46 45 45 45 46 47 47 47 47 47
12 14 17 22 30 40 47 51 52 52 51 49 47 45 45 45 46 48 50 52 53 52 52 50 48 46 45 45 44 43 42 42 42 42 43 43 42 42
10 12 15 18 22 29 39 47 51 53 52 51 50 48 46 45 45 45 47 48 49 49 48 47 46 45 44 43 43 42 41 40 39 39 38 38 38 38
Wind_Direction
238 239 239 239 240 241 241 241 241 240 238 236 236 236 236 236 236 237 237 237 237 237 237 238 238 239 239 240 241 242 242 243 243 244 245 246 247 248
234 237 239 240 241 242 242 243 243 243 241 240 238 237 237 237 236 237 237 237 237 237 237 237 238 239 240 241 241 242 242 243 244 245 245 245 245 247
233 235 237 239 240 241 242 243 243 243 243 242 241 239 239 238 237 237 237 237 237 237 237 237 237 238 239 241 241 242 242 243 243 244 244 244 245 246
237 238 239 240 241 240 240 241 241 241 242 242 242 241 240 240 239 238 237 237 237 236 236 235 235 236 237 239 240 241 242 243 243 244 244 244 245 247
240 242 243 245 245 243 240 239 238 237 237 238 239 239 240 239 239 239 238 237 237 236 236 235 235 236 236 237 238 239 241 242 243 244 244 245 246 247
241 243 246 248 248 246 241 237 234 231 230 232 234 235 235 235 236 236 237 237 237 236 236 236 236 236 237 237 237 239 240 241 242 243 244 245 246 246
239 241 245 247 248 246 240 233 227 223 222 223 225 226 228 229 230 231 233 235 235 235 235 235 236 237 236 237 237 238 239 240 241 242 242 242 243 245
235 237 239 242 243 237 229 222 216 213 213 216 219 222 222 224 225 226 228 231 232 234 234 234 234 234 234 234 234 235 236 238 239 240 240 242 244 247
230 231 232 234 230 221 215 210 209 210 210 210 214 218 220 221 222 223 225 227 229 231 232 232 233 234 234 234 234 234 234 236 238 239 241 244 246 249
226 225 224 224 221 215 211 205 202 203 204 208 211 213 215 218 221 223 223 225 227 228 229 230 231 233 233 234 235 235 237 238 240 243 245 247 249 251
222 221 219 218 217 214 212 208 204 204 205 208 210 211 213 216 218 219 221 222 224 226 228 230 231 233 234 235 236 237 238 240 241 243 245 247 249 251
220 220 218 218 216 215 215 214 212 210 209 210 212 214 215 216 216 216 218 221 223 226 229 231 232 233 235 235 236 237 239 240 241 243 244 246 248 251
219 219 218 218 218 218 219 219 219 216 214 214 215 215 215 216 217 217 218 220 222 224 227 229 231 232 234 236 236 238 239 240 241 243 244 246 249 251
220 219 219 219 219 220 221 222 222 221 219 217 216 215 214 215 216 218 219 221 222 224 225 227 230 231 233 235 236 237 240 242 243 244 245 247 249 251
221 220 220 220 221 221 222 223 223 223 223 222 220 218 217 216 217 219 220 221 223 224 226 228 229 231 232 234 237 239 241 242 243 243 245 246 248 249
222 221 221 221 221 222 223 223 224 224 223 223 223 222 221 220 219 220 221 222 224 226 227 230 231 232 233 235 237 239 240 241 241 242 243 245 246 246
225 222 221 222 222 222 223 224 225 224 224 223 223 223 223 223 223 223 223 224 226 228 230 231 233 234 234 235 236 237 238 240 241 242 243 245 247 248
230 226 223 222 223 223 223 224 225 225 225 224 224 224 223 223 224 225 226 227 228 230 232 233 234 234 234 235 235 236 237 238 240 242 244 246 248 250
236 231 226 223 222 223 223 223 224 225 225 225 225 224 224 224 224 225 226 228 229 231 232 234 234 234 234 234 235 236 238 240 241 243 244 247 250 251
246 238 232 227 224 223 223 224 224 225 226 226 226 225 225 224 224 225 225 226 228 230 232 233 234 234 234 235 237 238 240 242 243 245 246 248 249 251
260 248 239 232 227 224 223 223 224 224 225 226 226 226 225 224 224 224 224 224 225 227 229 231 233 233 233 234 236 238 241 243 245 246 247 247 247 248
274 260 248 238 232 227 225 224 224 224 224 225 225 226 225 224 224 223 222 222 222 224 226 229 230 230 231 233 235 238 241 243 245 246 245 243 243 243
305 277 259 246 237 231 227 225 224 224 224 224 225 225 225 225 224 223 222 221 221 222 224 225 226 228 230 233 236 238 241 242 243 243 241 239 238 238
Height
5471 5481 5491 5502 5512 5522 5532 5542 5553 5564 5577 5589 5598 5607 5616 5625 5634 5642 5651 5660 5668 5677 5685 5692 5700 5706 5712 5718 5723 5728 5734 5739 5744 5749 5754 5758 5762 5766
5456 5464 5473 5481 5490 5500 5511 5521 5531 5543 5556 5568 5579 5590 5599 5608 5617 5625 5635 5644 5652 5661 5670 5678 5686 5692 5698 5703 5709 5715 5720 5726 5731 5737 5742 5746 5751 5755
5445 5451 5458 5464 5472 5481 5490 5500 5511 5522 5535 5547 5558 5572 5580 5590 5600 5609 5618 5626 5635 5645 5654 5662 5670 5677 5683 5689 5694 5700 5706 5712 5718 5723 5728 5733 5739 5744
5434 5439 5445 5450 5456 5462 5470 5479 5490 5501 5514 5526 5538 5551 5562 5573 5582 5592 5600 5609 5619 5628 5637 5646 5653 5661 5667 5673 5679 5685 5692 5698 5704 5710 5715 5721 5726 5730
5423 5428 5432 5437 5442 5447 5453 5460 5470 5481 5493 5505 5517 5530 5542 5553 5563 5572 5581 5591 5601 5611 5620 5629 5637 5645 5652 5659 5665 5671 5678 5685 5690 5695 5700 5706 5711 5715
5411 5416 5420 5424 5428 5432 5437 5444 5453 5464 5475 5486 5498 5510 5521 5533 5543 5552 5562 5572 5583 5594 5603 5612 5621 5629 5637 5645 5653 5658 5663 5668 5675 5680 5685 5691 5695 5700
5400 5404 5408 5412 5415 5419 5423 5430 5439 5449 5460 5471 5481 5493 5503 5513 5524 5534 5544 5553 5564 5575 5586 5597 5608 5616 5620 5627 5634 5641 5647 5653 5659 5665 5670 5675 5680 5685
5388 5393 5397 5401 5404 5408 5413 5420 5428 5438 5448 5458 5467 5477 5487 5498 5509 5518 5527 5537 5549 5562 5571 5578 5587 5595 5603 5611 5618 5625 5631 5637 5643 5649 5654 5659 5664 5669
5375 5381 5386 5391 5395 5400 5405 5412 5420 5428 5438 5446 5454 5462 5472 5484 5495 5506 5513 5519 5532 5543 5551 5559 5568 5577 5586 5593 5601 5608 5615 5621 5626 5632 5637 5643 5648 5653
5363 5369 5375 5381 5386 5392 5398 5404 5411 5418 5426 5434 5443 5451 5460 5469 5480 5490 5499 5508 5517 5525 5533 5542 5551 5560 5568 5576 5584 5591 5598 5604 5610 5615 5621 5627 5632 5637
5350 5357 5364 5371 5376 5383 5389 5396 5402 5408 5415 5423 5432 5441 5451 5460 5469 5478 5487 5495 5503 5511 5519 5528 5536 5544 5552 5559 5567 5575 5582 5588 5594 5600 5606 5611 5616 5620
5337 5345 5353 5360 5366 5373 5380 5387 5394 5400 5407 5415 5424 5433 5441 5450 5458 5467 5476 5485 5492 5500 5507 5516 5523 5530 5537 5544 5552 5559 5566 5572 5578 5584 5590 5596 5600 5605
5325 5333 5341 5348 5356 5363 5371 5378 5385 5392 5399 5407 5415 5424 5432 5441 5449 5457 5465 5474 5482 5489 5497 5504 5511 5518 5525 5533 5539 5545 5551 5557 5563 5569 5576 5581 5586 5590
5312 5321 5329 5337 5345 5353 5360 5368 5376 5384 5391 5399 5407 5415 5423 5431 5439 5447 5455 5463 5470 5478 5486 5493 5500 5507 5514 5520 5526 5532 5538 5544 5550 5556 5562 5567 5571 5575
5300 5309 5318 5326 5334 5342 5349 5357 5366 5374 5382 5390 5398 5406 5413 5421 5429 5437 5445 5452 5460 5467 5474 5481 5488 5494 5501 5507 5514 5520 5526 5532 5537 5543 5548 5553 5558 5561
5291 5299 5307 5315 5323 5331 5338 5346 5355 5363 5371 5380 5388 5396 5403 5411 5419 5427 5435 5442 5449 5456 5463 5469 5476 5483 5489 5496 5502 5508 5514 5520 5525 5531 5536 5540 5544 5548
5281 5289 5296 5304 5312 5320 5328 5335 5343 5351 5360 5368 5376 5384 5392 5400 5408 5415 5423 5431 5438 5445 5452 5458 5465 5471 5477 5484 5490 5496 5502 5508 5513 5518 5523 5527 5532 5535
5273 5279 5286 5293 5301 5309 5317 5325 5332 5340 5348 5356 5364 5372 5379 5387 5395 5403 5411 5419 5427 5434 5440 5447 5454 5460 5467 5473 5479 5485 5491 5497 5502 5506 5510 5515 5518 5522
5267 5270 5276 5283 5291 5298 5306 5314 5322 5329 5337 5344 5352 5359 5367 5375 5383 5391 5399 5407 5415 5422 5429 5436 5443 5449 5456 5462 5468 5474 5480 5485 5490 5494 5498 5502 5505 5509
5261 5264 5268 5274 5281 5288 5296 5304 5311 5319 5326 5333 5340 5347 5355 5362 5370 5378 5386 5394 5402 5410 5418 5425 5432 5438 5445 5451 5457 5463 5468 5473 5477 5482 5485 5489 5492 5496
5257 5258 5261 5265 5270 5277 5285 5293 5300 5308 5316 5323 5330 5337 5343 5351 5358 5366 5374 5382 5390 5398 5406 5414 5420 5427 5433 5440 5446 5452 5457 5461 5465 5469 5473 5477 5480 5483
5253 5253 5255 5257 5261 5267 5274 5281 5289 5297 5305 5313 5320 5327 5334 5341 5348 5355 5363 5370 5378 5387 5395 5402 5410 5416 5423 5430 5436 5441 5446 5451 5454 5457 5461 5465 5469 5472
5250 5249 5250 5251 5254 5258 5263 5270 5278 5286 5294 5302 5310 5317 5324 5331 5338 5345 5353 5360 5368 5376 5384 5392 5399 5406 5413 5420 5426 5431 5436 5440 5444 5447 5451 5455 5459 5463